Year,Month,Day,Hour,Minute,Value (Times are PST for temperature in C)
2019,03,20,00,00,5.60
2019,03,20,00,01,5.60
2019,03,20,00,02,5.60
2019,03,20,00,03,5.60
2019,03,20,00,04,5.50
2019,03,20,00,05,5.50
2019,03,20,00,06,5.50
2019,03,20,00,07,5.40
2019,03,20,00,08,5.40
2019,03,20,00,09,5.40
2019,03,20,00,10,5.40
2019,03,20,00,11,5.40
2019,03,20,00,12,5.40
2019,03,20,00,13,5.40
2019,03,20,00,14,5.40
2019,03,20,00,15,5.40
2019,03,20,00,16,5.40
2019,03,20,00,17,5.40
2019,03,20,00,18,5.40
2019,03,20,00,19,5.50
2019,03,20,00,20,5.40
2019,03,20,00,21,5.50
2019,03,20,00,22,5.50
2019,03,20,00,23,5.50
2019,03,20,00,24,5.50
2019,03,20,00,25,5.50
2019,03,20,00,26,5.50
2019,03,20,00,27,5.50
2019,03,20,00,28,5.50
2019,03,20,00,29,5.40
2019,03,20,00,30,5.40
2019,03,20,00,31,5.40
2019,03,20,00,32,5.40
2019,03,20,00,33,5.40
2019,03,20,00,34,5.40
2019,03,20,00,35,5.40
2019,03,20,00,36,5.30
2019,03,20,00,37,5.30
2019,03,20,00,38,5.30
2019,03,20,00,39,5.30
2019,03,20,00,40,5.30
2019,03,20,00,41,5.30
2019,03,20,00,42,5.20
2019,03,20,00,43,5.20
2019,03,20,00,44,5.20
2019,03,20,00,45,5.10
2019,03,20,00,46,5.10
2019,03,20,00,47,5.10
2019,03,20,00,48,5.00
2019,03,20,00,49,5.00
2019,03,20,00,50,5.00
2019,03,20,00,51,4.90
2019,03,20,00,52,4.90
2019,03,20,00,53,4.90
2019,03,20,00,54,4.80
2019,03,20,00,55,4.80
2019,03,20,00,56,4.80
2019,03,20,00,57,4.80
2019,03,20,00,58,4.80
2019,03,20,00,59,4.80
2019,03,20,01,00,4.80
2019,03,20,01,01,4.80
2019,03,20,01,02,4.80
2019,03,20,01,03,4.80
2019,03,20,01,04,4.80
2019,03,20,01,05,4.80
2019,03,20,01,06,4.70
2019,03,20,01,07,4.70
2019,03,20,01,08,4.60
2019,03,20,01,09,4.60
2019,03,20,01,10,4.60
2019,03,20,01,11,4.60
2019,03,20,01,12,4.50
2019,03,20,01,13,4.50
2019,03,20,01,14,4.60
2019,03,20,01,15,4.60
2019,03,20,01,16,4.60
2019,03,20,01,17,4.60
2019,03,20,01,18,4.60
2019,03,20,01,19,4.60
2019,03,20,01,20,4.60
2019,03,20,01,21,4.60
2019,03,20,01,22,4.60
2019,03,20,01,23,4.60
2019,03,20,01,24,4.60
2019,03,20,01,25,4.60
2019,03,20,01,26,4.60
2019,03,20,01,27,4.60
2019,03,20,01,28,4.60
2019,03,20,01,29,4.60
2019,03,20,01,30,4.50
2019,03,20,01,31,4.50
2019,03,20,01,32,4.40
2019,03,20,01,33,4.40
2019,03,20,01,34,4.30
2019,03,20,01,35,4.30
2019,03,20,01,36,4.20
2019,03,20,01,37,4.20
2019,03,20,01,38,4.20
2019,03,20,01,39,4.20
2019,03,20,01,40,4.20
2019,03,20,01,41,4.20
2019,03,20,01,42,4.20
2019,03,20,01,43,4.20
2019,03,20,01,44,4.20
2019,03,20,01,45,4.20
2019,03,20,01,46,4.10
2019,03,20,01,47,4.10
2019,03,20,01,48,4.10
2019,03,20,01,49,4.10
2019,03,20,01,50,4.10
2019,03,20,01,51,4.10
2019,03,20,01,52,4.10
2019,03,20,01,53,4.00
2019,03,20,01,54,4.00
2019,03,20,01,55,4.00
2019,03,20,01,56,4.00
2019,03,20,01,57,4.00
2019,03,20,01,58,4.00
2019,03,20,01,59,4.00
2019,03,20,02,00,4.00
2019,03,20,02,01,4.00
2019,03,20,02,02,4.00
2019,03,20,02,03,4.00
2019,03,20,02,04,4.00
2019,03,20,02,05,4.00
2019,03,20,02,06,3.90
2019,03,20,02,07,3.90
2019,03,20,02,08,3.90
2019,03,20,02,09,3.90
2019,03,20,02,10,3.90
2019,03,20,02,11,3.90
2019,03,20,02,12,3.80
2019,03,20,02,13,3.80
2019,03,20,02,14,3.80
2019,03,20,02,15,3.80
2019,03,20,02,16,3.80
2019,03,20,02,17,3.80
2019,03,20,02,18,3.80
2019,03,20,02,19,3.80
2019,03,20,02,20,3.80
2019,03,20,02,21,3.80
2019,03,20,02,22,3.90
2019,03,20,02,23,3.90
2019,03,20,02,24,3.90
2019,03,20,02,25,3.90
2019,03,20,02,26,3.90
2019,03,20,02,27,3.80
2019,03,20,02,28,3.80
2019,03,20,02,29,3.80
2019,03,20,02,30,3.80
2019,03,20,02,31,3.80
2019,03,20,02,32,3.80
2019,03,20,02,33,3.80
2019,03,20,02,34,3.80
2019,03,20,02,35,3.80
2019,03,20,02,36,3.70
2019,03,20,02,37,3.70
2019,03,20,02,38,3.70
2019,03,20,02,39,3.70
2019,03,20,02,40,3.70
2019,03,20,02,41,3.70
2019,03,20,02,42,3.70
2019,03,20,02,43,3.70
2019,03,20,02,44,3.60
2019,03,20,02,45,3.60
2019,03,20,02,46,3.60
2019,03,20,02,47,3.50
2019,03,20,02,48,3.50
2019,03,20,02,49,3.40
2019,03,20,02,50,3.40
2019,03,20,02,51,3.40
2019,03,20,02,52,3.40
2019,03,20,02,53,3.40
2019,03,20,02,54,3.40
2019,03,20,02,55,3.40
2019,03,20,02,56,3.30
2019,03,20,02,57,3.30
2019,03,20,02,58,3.30
2019,03,20,02,59,3.30
2019,03,20,03,00,3.40
2019,03,20,03,01,3.40
2019,03,20,03,02,3.40
2019,03,20,03,03,3.40
2019,03,20,03,04,3.40
2019,03,20,03,05,3.40
2019,03,20,03,06,3.40
2019,03,20,03,07,3.40
2019,03,20,03,08,3.40
2019,03,20,03,09,3.40
2019,03,20,03,10,3.40
2019,03,20,03,11,3.30
2019,03,20,03,12,3.30
2019,03,20,03,13,3.30
2019,03,20,03,14,3.40
2019,03,20,03,15,3.40
2019,03,20,03,16,3.40
2019,03,20,03,17,3.40
2019,03,20,03,18,3.40
2019,03,20,03,19,3.30
2019,03,20,03,20,3.30
2019,03,20,03,21,3.30
2019,03,20,03,22,3.30
2019,03,20,03,23,3.30
2019,03,20,03,24,3.30
2019,03,20,03,25,3.30
2019,03,20,03,26,3.30
2019,03,20,03,27,3.30
2019,03,20,03,28,3.30
2019,03,20,03,29,3.30
2019,03,20,03,30,3.30
2019,03,20,03,31,3.30
2019,03,20,03,32,3.30
2019,03,20,03,33,3.30
2019,03,20,03,34,3.30
2019,03,20,03,35,3.30
2019,03,20,03,36,3.30
2019,03,20,03,37,3.30
2019,03,20,03,38,3.40
2019,03,20,03,39,3.40
2019,03,20,03,40,3.40
2019,03,20,03,41,3.40
2019,03,20,03,42,3.40
2019,03,20,03,43,3.40
2019,03,20,03,44,3.30
2019,03,20,03,45,3.40
2019,03,20,03,46,3.40
2019,03,20,03,47,3.40
2019,03,20,03,48,3.40
2019,03,20,03,49,3.30
2019,03,20,03,50,3.30
2019,03,20,03,51,3.30
2019,03,20,03,52,3.30
2019,03,20,03,53,3.20
2019,03,20,03,54,3.20
2019,03,20,03,55,3.20
2019,03,20,03,56,3.20
2019,03,20,03,57,3.10
2019,03,20,03,58,3.10
2019,03,20,03,59,3.10
2019,03,20,04,00,3.10
2019,03,20,04,01,3.10
2019,03,20,04,02,3.10
2019,03,20,04,03,3.10
2019,03,20,04,04,3.00
2019,03,20,04,05,3.00
2019,03,20,04,06,3.00
2019,03,20,04,07,3.00
2019,03,20,04,08,3.10
2019,03,20,04,09,3.10
2019,03,20,04,10,3.10
2019,03,20,04,11,3.10
2019,03,20,04,12,3.10
2019,03,20,04,13,3.20
2019,03,20,04,14,3.20
2019,03,20,04,15,3.20
2019,03,20,04,16,3.20
2019,03,20,04,17,3.10
2019,03,20,04,18,3.10
2019,03,20,04,19,3.10
2019,03,20,04,20,3.10
2019,03,20,04,21,3.10
2019,03,20,04,22,3.10
2019,03,20,04,23,3.10
2019,03,20,04,24,3.10
2019,03,20,04,25,3.10
2019,03,20,04,26,3.10
2019,03,20,04,27,3.20
2019,03,20,04,28,3.20
2019,03,20,04,29,3.20
2019,03,20,04,30,3.20
2019,03,20,04,31,3.20
2019,03,20,04,32,3.20
2019,03,20,04,33,3.20
2019,03,20,04,34,3.20
2019,03,20,04,35,3.20
2019,03,20,04,36,3.20
2019,03,20,04,37,3.20
2019,03,20,04,38,3.20
2019,03,20,04,39,3.20
2019,03,20,04,40,3.10
2019,03,20,04,41,3.10
2019,03,20,04,42,3.10
2019,03,20,04,43,3.00
2019,03,20,04,44,3.00
2019,03,20,04,45,2.90
2019,03,20,04,46,2.90
2019,03,20,04,47,2.90
2019,03,20,04,48,2.80
2019,03,20,04,49,2.80
2019,03,20,04,50,2.80
2019,03,20,04,51,2.70
2019,03,20,04,52,2.70
2019,03,20,04,53,2.70
2019,03,20,04,54,2.60
2019,03,20,04,55,2.60
2019,03,20,04,56,2.50
2019,03,20,04,57,2.50
2019,03,20,04,58,2.40
2019,03,20,04,59,2.40
2019,03,20,05,00,2.40
2019,03,20,05,01,2.40
2019,03,20,05,02,2.40
2019,03,20,05,03,2.30
2019,03,20,05,04,2.40
2019,03,20,05,05,2.40
2019,03,20,05,06,2.40
2019,03,20,05,07,2.40
2019,03,20,05,08,2.40
2019,03,20,05,09,2.40
2019,03,20,05,10,2.50
2019,03,20,05,11,2.50
2019,03,20,05,12,2.50
2019,03,20,05,13,2.60
2019,03,20,05,14,2.60
2019,03,20,05,15,2.60
2019,03,20,05,16,2.60
2019,03,20,05,17,2.60
2019,03,20,05,18,2.60
2019,03,20,05,19,2.60
2019,03,20,05,20,2.60
2019,03,20,05,21,2.60
2019,03,20,05,22,2.60
2019,03,20,05,23,2.60
2019,03,20,05,24,2.60
2019,03,20,05,25,2.60
2019,03,20,05,26,2.60
2019,03,20,05,27,2.60
2019,03,20,05,28,2.60
2019,03,20,05,29,2.60
2019,03,20,05,30,2.50
2019,03,20,05,31,2.50
2019,03,20,05,32,2.40
2019,03,20,05,33,2.40
2019,03,20,05,34,2.30
2019,03,20,05,35,2.30
2019,03,20,05,36,2.20
2019,03,20,05,37,2.20
2019,03,20,05,38,2.20
2019,03,20,05,39,2.20
2019,03,20,05,40,2.20
2019,03,20,05,41,2.20
2019,03,20,05,42,2.20
2019,03,20,05,43,2.20
2019,03,20,05,44,2.20
2019,03,20,05,45,2.20
2019,03,20,05,46,2.30
2019,03,20,05,47,2.30
2019,03,20,05,48,2.30
2019,03,20,05,49,2.30
2019,03,20,05,50,2.30
2019,03,20,05,51,2.30
2019,03,20,05,52,2.30
2019,03,20,05,53,2.30
2019,03,20,05,54,2.30
2019,03,20,05,55,2.30
2019,03,20,05,56,2.30
2019,03,20,05,57,2.30
2019,03,20,05,58,2.20
2019,03,20,05,59,2.20
2019,03,20,06,00,2.20
2019,03,20,06,01,2.20
2019,03,20,06,02,2.20
2019,03,20,06,03,2.20
2019,03,20,06,04,2.10
2019,03,20,06,05,2.10
2019,03,20,06,06,2.00
2019,03,20,06,07,1.90
2019,03,20,06,08,1.90
2019,03,20,06,09,1.90
2019,03,20,06,10,1.80
2019,03,20,06,11,1.80
2019,03,20,06,12,1.80
2019,03,20,06,13,1.80
2019,03,20,06,14,1.70
2019,03,20,06,15,1.70
2019,03,20,06,16,1.80
2019,03,20,06,17,1.80
2019,03,20,06,18,1.80
2019,03,20,06,19,1.80
2019,03,20,06,20,1.90
2019,03,20,06,21,1.90
2019,03,20,06,22,1.90
2019,03,20,06,23,1.90
2019,03,20,06,24,1.90
2019,03,20,06,25,1.90
2019,03,20,06,26,1.90
2019,03,20,06,27,1.90
2019,03,20,06,28,1.90
2019,03,20,06,29,1.90
2019,03,20,06,30,1.90
2019,03,20,06,31,1.90
2019,03,20,06,32,1.90
2019,03,20,06,33,1.90
2019,03,20,06,34,1.90
2019,03,20,06,35,1.80
2019,03,20,06,36,1.80
2019,03,20,06,37,1.80
2019,03,20,06,38,1.80
2019,03,20,06,39,1.70
2019,03,20,06,40,1.70
2019,03,20,06,41,1.70
2019,03,20,06,42,1.60
2019,03,20,06,43,1.60
2019,03,20,06,44,1.60
2019,03,20,06,45,1.60
2019,03,20,06,46,1.50
2019,03,20,06,47,1.50
2019,03,20,06,48,1.50
2019,03,20,06,49,1.60
2019,03,20,06,50,1.60
2019,03,20,06,51,1.60
2019,03,20,06,52,1.60
2019,03,20,06,53,1.60
2019,03,20,06,54,1.60
2019,03,20,06,55,1.60
2019,03,20,06,56,1.60
2019,03,20,06,57,1.70
2019,03,20,06,58,1.70
2019,03,20,06,59,1.70
2019,03,20,07,00,1.70
2019,03,20,07,01,1.70
2019,03,20,07,02,1.70
2019,03,20,07,03,1.70
2019,03,20,07,04,1.70
2019,03,20,07,05,1.70
2019,03,20,07,06,1.70
2019,03,20,07,07,1.70
2019,03,20,07,08,1.70
2019,03,20,07,09,1.70
2019,03,20,07,10,1.80
2019,03,20,07,11,1.80
2019,03,20,07,12,1.80
2019,03,20,07,13,1.80
2019,03,20,07,14,1.80
2019,03,20,07,15,1.80
2019,03,20,07,16,1.80
2019,03,20,07,17,1.70
2019,03,20,07,18,1.70
2019,03,20,07,19,1.70
2019,03,20,07,20,1.70
2019,03,20,07,21,1.70
2019,03,20,07,22,1.70
2019,03,20,07,23,1.60
2019,03,20,07,24,1.60
2019,03,20,07,25,1.60
2019,03,20,07,26,1.60
2019,03,20,07,27,1.70
2019,03,20,07,28,1.70
2019,03,20,07,29,1.60
2019,03,20,07,30,1.60
2019,03,20,07,31,1.60
2019,03,20,07,32,1.50
2019,03,20,07,33,1.50
2019,03,20,07,34,1.50
2019,03,20,07,35,1.40
2019,03,20,07,36,1.40
2019,03,20,07,37,1.40
2019,03,20,07,38,1.40
2019,03,20,07,39,1.40
2019,03,20,07,40,1.50
2019,03,20,07,41,1.50
2019,03,20,07,42,1.60
2019,03,20,07,43,1.60
2019,03,20,07,44,1.60
2019,03,20,07,45,1.60
2019,03,20,07,46,1.50
2019,03,20,07,47,1.50
2019,03,20,07,48,1.50
2019,03,20,07,49,1.40
2019,03,20,07,50,1.40
2019,03,20,07,51,1.40
2019,03,20,07,52,1.40
2019,03,20,07,53,1.50
2019,03,20,07,54,1.50
2019,03,20,07,55,1.50
2019,03,20,07,56,1.60
2019,03,20,07,57,1.60
2019,03,20,07,58,1.60
2019,03,20,07,59,1.70
2019,03,20,08,00,1.70
2019,03,20,08,01,1.70
2019,03,20,08,02,1.80
2019,03,20,08,03,1.80
2019,03,20,08,04,1.80
2019,03,20,08,05,1.90
2019,03,20,08,06,1.90
2019,03,20,08,07,2.00
2019,03,20,08,08,2.00
2019,03,20,08,09,2.10
2019,03,20,08,10,2.10
2019,03,20,08,11,2.20
2019,03,20,08,12,2.20
2019,03,20,08,13,2.20
2019,03,20,08,14,2.20
2019,03,20,08,15,2.20
2019,03,20,08,16,2.30
2019,03,20,08,17,2.30
2019,03,20,08,18,2.30
2019,03,20,08,19,2.40
2019,03,20,08,20,2.50
2019,03,20,08,21,2.50
2019,03,20,08,22,2.60
2019,03,20,08,23,2.60
2019,03,20,08,24,2.70
2019,03,20,08,25,2.70
2019,03,20,08,26,2.80
2019,03,20,08,27,2.90
2019,03,20,08,28,3.00
2019,03,20,08,29,3.10
2019,03,20,08,30,3.10
2019,03,20,08,31,3.20
2019,03,20,08,32,3.20
2019,03,20,08,33,3.30
2019,03,20,08,34,3.40
2019,03,20,08,35,3.40
2019,03,20,08,36,3.50
2019,03,20,08,37,3.60
2019,03,20,08,38,3.60
2019,03,20,08,39,3.70
2019,03,20,08,40,3.80
2019,03,20,08,41,3.80
2019,03,20,08,42,3.90
2019,03,20,08,43,3.90
2019,03,20,08,44,4.00
2019,03,20,08,45,4.10
2019,03,20,08,46,4.10
2019,03,20,08,47,4.20
2019,03,20,08,48,4.30
2019,03,20,08,49,4.40
2019,03,20,08,50,4.50
2019,03,20,08,51,4.50
2019,03,20,08,52,4.60
2019,03,20,08,53,4.70
2019,03,20,08,54,4.70
2019,03,20,08,55,4.80
2019,03,20,08,56,4.80
2019,03,20,08,57,4.90
2019,03,20,08,58,5.00
2019,03,20,08,59,5.10
2019,03,20,09,00,5.20
2019,03,20,09,01,5.20
2019,03,20,09,02,5.30
2019,03,20,09,03,5.30
2019,03,20,09,04,5.40
2019,03,20,09,05,5.50
2019,03,20,09,06,5.60
2019,03,20,09,07,5.70
2019,03,20,09,08,5.80
2019,03,20,09,09,5.80
2019,03,20,09,10,5.90
2019,03,20,09,11,6.00
2019,03,20,09,12,6.10
2019,03,20,09,13,6.10
2019,03,20,09,14,6.20
2019,03,20,09,15,6.30
2019,03,20,09,16,6.40
2019,03,20,09,17,6.40
2019,03,20,09,18,6.50
2019,03,20,09,19,6.60
2019,03,20,09,20,6.70
2019,03,20,09,21,6.70
2019,03,20,09,22,6.80
2019,03,20,09,23,6.90
2019,03,20,09,24,7.00
2019,03,20,09,25,7.10
2019,03,20,09,26,7.10
2019,03,20,09,27,7.20
2019,03,20,09,28,7.30
2019,03,20,09,29,7.30
2019,03,20,09,30,7.40
2019,03,20,09,31,7.50
2019,03,20,09,32,7.60
2019,03,20,09,33,7.70
2019,03,20,09,34,7.80
2019,03,20,09,35,7.90
2019,03,20,09,36,8.00
2019,03,20,09,37,8.10
2019,03,20,09,38,8.20
2019,03,20,09,39,8.30
2019,03,20,09,40,8.30
2019,03,20,09,41,8.30
2019,03,20,09,42,8.30
2019,03,20,09,43,8.30
2019,03,20,09,44,8.40
2019,03,20,09,45,8.80
2019,03,20,09,46,8.90
2019,03,20,09,47,9.00
2019,03,20,09,48,9.00
2019,03,20,09,49,9.20
2019,03,20,09,50,9.30
2019,03,20,09,51,9.40
2019,03,20,09,52,9.50
2019,03,20,09,53,9.60
2019,03,20,09,54,9.70
2019,03,20,09,55,9.80
2019,03,20,09,56,9.90
2019,03,20,09,57,10.10
2019,03,20,09,58,10.20
2019,03,20,09,59,10.30
2019,03,20,10,00,10.40
2019,03,20,10,01,10.50
2019,03,20,10,02,10.60
2019,03,20,10,03,10.70
2019,03,20,10,04,10.80
2019,03,20,10,05,10.90
2019,03,20,10,06,11.00
2019,03,20,10,07,11.10
2019,03,20,10,08,11.20
2019,03,20,10,09,11.30
2019,03,20,10,10,11.40
2019,03,20,10,11,11.50
2019,03,20,10,12,11.60
2019,03,20,10,13,11.60
2019,03,20,10,14,11.70
2019,03,20,10,15,11.80
2019,03,20,10,16,11.90
2019,03,20,10,17,12.00
2019,03,20,10,18,12.10
2019,03,20,10,19,12.20
2019,03,20,10,20,12.30
2019,03,20,10,21,12.40
2019,03,20,10,22,12.50
2019,03,20,10,23,12.60
2019,03,20,10,24,12.70
2019,03,20,10,25,12.70
2019,03,20,10,26,12.80
2019,03,20,10,27,12.90
2019,03,20,10,28,13.00
2019,03,20,10,29,13.00
2019,03,20,10,30,13.10
2019,03,20,10,31,13.20
2019,03,20,10,32,13.30
2019,03,20,10,33,13.40
2019,03,20,10,34,13.50
2019,03,20,10,35,13.60
2019,03,20,10,36,13.60
2019,03,20,10,37,13.70
2019,03,20,10,38,13.70
2019,03,20,10,39,13.80
2019,03,20,10,40,13.80
2019,03,20,10,41,13.90
2019,03,20,10,42,14.00
2019,03,20,10,43,14.10
2019,03,20,10,44,14.20
2019,03,20,10,45,14.30
2019,03,20,10,46,14.40
2019,03,20,10,47,14.50
2019,03,20,10,48,14.60
2019,03,20,10,49,14.70
2019,03,20,10,50,14.80
2019,03,20,10,51,14.80
2019,03,20,10,52,14.90
2019,03,20,10,53,15.00
2019,03,20,10,54,15.00
2019,03,20,10,55,15.10
2019,03,20,10,56,15.20
2019,03,20,10,57,15.20
2019,03,20,10,58,15.30
2019,03,20,10,59,15.30
2019,03,20,11,00,15.40
2019,03,20,11,01,15.50
2019,03,20,11,02,15.40
2019,03,20,11,03,15.40
2019,03,20,11,04,15.40
2019,03,20,11,05,15.40
2019,03,20,11,06,15.50
2019,03,20,11,07,15.50
2019,03,20,11,08,15.60
2019,03,20,11,09,15.60
2019,03,20,11,10,15.70
2019,03,20,11,11,15.70
2019,03,20,11,12,15.70
2019,03,20,11,13,15.80
2019,03,20,11,14,15.80
2019,03,20,11,15,15.90
2019,03,20,11,16,16.00
2019,03,20,11,17,16.10
2019,03,20,11,18,16.10
2019,03,20,11,19,16.30
2019,03,20,11,20,16.40
2019,03,20,11,21,16.50
2019,03,20,11,22,16.60
2019,03,20,11,23,16.70
2019,03,20,11,24,16.90
2019,03,20,11,25,17.00
2019,03,20,11,26,17.10
2019,03,20,11,27,17.20
2019,03,20,11,28,17.20
2019,03,20,11,29,17.30
2019,03,20,11,30,17.40
2019,03,20,11,31,17.50
2019,03,20,11,32,17.50
2019,03,20,11,33,17.60
2019,03,20,11,34,17.70
2019,03,20,11,35,17.70
2019,03,20,11,36,17.80
2019,03,20,11,37,17.80
2019,03,20,11,38,17.90
2019,03,20,11,39,17.90
2019,03,20,11,40,17.90
2019,03,20,11,41,17.90
2019,03,20,11,42,17.80
2019,03,20,11,43,17.80
2019,03,20,11,44,17.90
2019,03,20,11,45,17.90
2019,03,20,11,46,17.90
2019,03,20,11,47,17.90
2019,03,20,11,48,17.80
2019,03,20,11,49,17.80
2019,03,20,11,50,17.80
2019,03,20,11,51,17.70
2019,03,20,11,52,17.70
2019,03,20,11,53,17.80
2019,03,20,11,54,17.90
2019,03,20,11,55,18.10
2019,03,20,11,56,18.20
2019,03,20,11,57,18.30
2019,03,20,11,58,18.40
2019,03,20,11,59,18.50
2019,03,20,12,00,18.60
2019,03,20,12,01,18.60
2019,03,20,12,02,18.70
2019,03,20,12,03,18.60
2019,03,20,12,04,18.60
2019,03,20,12,05,18.60
2019,03,20,12,06,18.50
2019,03,20,12,07,18.50
2019,03,20,12,08,18.40
2019,03,20,12,09,18.40
2019,03,20,12,10,18.40
2019,03,20,12,11,18.40
2019,03,20,12,12,18.40
2019,03,20,12,13,18.40
2019,03,20,12,14,18.30
2019,03,20,12,15,18.30
2019,03,20,12,16,18.20
2019,03,20,12,17,18.20
2019,03,20,12,18,18.10
2019,03,20,12,19,18.10
2019,03,20,12,20,18.10
2019,03,20,12,21,18.10
2019,03,20,12,22,18.10
2019,03,20,12,23,18.10
2019,03,20,12,24,18.10
2019,03,20,12,25,18.20
2019,03,20,12,26,18.20
2019,03,20,12,27,18.20
2019,03,20,12,28,18.30
2019,03,20,12,29,18.30
2019,03,20,12,30,18.30
2019,03,20,12,31,18.40
2019,03,20,12,32,18.50
2019,03,20,12,33,18.50
2019,03,20,12,34,18.60
2019,03,20,12,35,18.70
2019,03,20,12,36,18.70
2019,03,20,12,37,18.70
2019,03,20,12,38,18.70
2019,03,20,12,39,18.70
2019,03,20,12,40,18.70
2019,03,20,12,41,18.70
2019,03,20,12,42,18.60
2019,03,20,12,43,18.60
2019,03,20,12,44,18.60
2019,03,20,12,45,18.60
2019,03,20,12,46,18.70
2019,03,20,12,47,18.70
2019,03,20,12,48,18.70
2019,03,20,12,49,18.70
2019,03,20,12,50,18.70
2019,03,20,12,51,18.80
2019,03,20,12,52,18.90
2019,03,20,12,53,18.90
2019,03,20,12,54,18.90
2019,03,20,12,55,18.90
2019,03,20,12,56,18.90
2019,03,20,12,57,19.00
2019,03,20,12,58,19.00
2019,03,20,12,59,19.00
2019,03,20,13,00,19.00
2019,03,20,13,01,19.00
2019,03,20,13,02,19.10
2019,03,20,13,03,19.10
2019,03,20,13,04,19.10
2019,03,20,13,05,19.20
2019,03,20,13,06,19.30
2019,03,20,13,07,19.40
2019,03,20,13,08,19.40
2019,03,20,13,09,19.50
2019,03,20,13,10,19.50
2019,03,20,13,11,19.60
2019,03,20,13,12,19.60
2019,03,20,13,13,19.70
2019,03,20,13,14,19.70
2019,03,20,13,15,19.70
2019,03,20,13,16,19.70
2019,03,20,13,17,19.80
2019,03,20,13,18,19.80
2019,03,20,13,19,19.80
2019,03,20,13,20,19.80
2019,03,20,13,21,19.70
2019,03,20,13,22,19.70
2019,03,20,13,23,19.70
2019,03,20,13,24,19.60
2019,03,20,13,25,19.60
2019,03,20,13,26,19.70
2019,03,20,13,27,19.70
2019,03,20,13,28,19.70
2019,03,20,13,29,19.80
2019,03,20,13,30,19.80
2019,03,20,13,31,19.90
2019,03,20,13,32,20.00
2019,03,20,13,33,20.00
2019,03,20,13,34,19.80
2019,03,20,13,35,19.70
2019,03,20,13,36,19.60
2019,03,20,13,37,19.50
2019,03,20,13,38,19.50
2019,03,20,13,39,19.50
2019,03,20,13,40,19.70
2019,03,20,13,41,19.80
2019,03,20,13,42,19.90
2019,03,20,13,43,20.00
2019,03,20,13,44,20.00
2019,03,20,13,45,20.10
2019,03,20,13,46,20.10
2019,03,20,13,47,20.10
2019,03,20,13,48,20.20
2019,03,20,13,49,20.20
2019,03,20,13,50,20.20
2019,03,20,13,51,20.20
2019,03,20,13,52,20.20
2019,03,20,13,53,20.20
2019,03,20,13,54,20.20
2019,03,20,13,55,20.20
2019,03,20,13,56,20.20
2019,03,20,13,57,20.30
2019,03,20,13,58,20.30
2019,03,20,13,59,20.30
2019,03,20,14,00,20.30
2019,03,20,14,01,20.40
2019,03,20,14,02,20.40
2019,03,20,14,03,20.40
2019,03,20,14,04,20.40
2019,03,20,14,05,20.40
2019,03,20,14,06,20.50
2019,03,20,14,07,20.50
2019,03,20,14,08,20.50
2019,03,20,14,09,20.50
2019,03,20,14,10,20.50
2019,03,20,14,11,20.60
2019,03,20,14,12,20.60
2019,03,20,14,13,20.70
2019,03,20,14,14,20.80
2019,03,20,14,15,20.80
2019,03,20,14,16,20.80
2019,03,20,14,17,20.80
2019,03,20,14,18,20.90
2019,03,20,14,19,21.00
2019,03,20,14,20,21.10
2019,03,20,14,21,21.20
2019,03,20,14,22,21.20
2019,03,20,14,23,21.20
2019,03,20,14,24,21.20
2019,03,20,14,25,21.10
2019,03,20,14,26,21.10
2019,03,20,14,27,21.10
2019,03,20,14,28,21.10
2019,03,20,14,29,21.10
2019,03,20,14,30,21.00
2019,03,20,14,31,21.00
2019,03,20,14,32,21.00
2019,03,20,14,33,21.00
2019,03,20,14,34,21.10
2019,03,20,14,35,21.10
2019,03,20,14,36,21.10
2019,03,20,14,37,21.10
2019,03,20,14,38,21.20
2019,03,20,14,39,21.20
2019,03,20,14,40,21.30
2019,03,20,14,41,21.40
2019,03,20,14,42,21.40
2019,03,20,14,43,21.50
2019,03,20,14,44,21.40
2019,03,20,14,45,21.40
2019,03,20,14,46,21.30
2019,03,20,14,47,21.30
2019,03,20,14,48,21.40
2019,03,20,14,49,21.40
2019,03,20,14,50,21.40
2019,03,20,14,51,21.40
2019,03,20,14,52,21.50
2019,03,20,14,53,21.50
2019,03,20,14,54,21.50
2019,03,20,14,55,21.40
2019,03,20,14,56,21.40
2019,03,20,14,57,21.40
2019,03,20,14,58,21.40
2019,03,20,14,59,21.40
2019,03,20,15,00,21.40
2019,03,20,15,01,21.50
2019,03,20,15,02,21.50
2019,03,20,15,03,21.60
2019,03,20,15,04,21.60
2019,03,20,15,05,21.60
2019,03,20,15,06,21.60
2019,03,20,15,07,21.60
2019,03,20,15,08,21.60
2019,03,20,15,09,21.70
2019,03,20,15,10,21.80
2019,03,20,15,11,21.80
2019,03,20,15,12,21.90
2019,03,20,15,13,21.90
2019,03,20,15,14,21.90
2019,03,20,15,15,21.90
2019,03,20,15,16,21.90
2019,03,20,15,17,21.90
2019,03,20,15,18,21.90
2019,03,20,15,19,21.90
2019,03,20,15,20,21.90
2019,03,20,15,21,21.90
2019,03,20,15,22,21.90
2019,03,20,15,23,21.90
2019,03,20,15,24,22.00
2019,03,20,15,25,22.10
2019,03,20,15,26,22.10
2019,03,20,15,27,22.20
2019,03,20,15,28,22.20
2019,03,20,15,29,22.20
2019,03,20,15,30,22.10
2019,03,20,15,31,22.10
2019,03,20,15,32,22.10
2019,03,20,15,33,22.10
2019,03,20,15,34,22.10
2019,03,20,15,35,22.10
2019,03,20,15,36,22.10
2019,03,20,15,37,22.20
2019,03,20,15,38,22.20
2019,03,20,15,39,22.30
2019,03,20,15,40,22.40
2019,03,20,15,41,22.50
2019,03,20,15,42,22.60
2019,03,20,15,43,22.80
2019,03,20,15,44,22.80
2019,03,20,15,45,22.90
2019,03,20,15,46,22.90
2019,03,20,15,47,22.90
2019,03,20,15,48,22.90
2019,03,20,15,49,22.90
2019,03,20,15,50,22.90
2019,03,20,15,51,22.90
2019,03,20,15,52,22.90
2019,03,20,15,53,23.00
2019,03,20,15,54,23.00
2019,03,20,15,55,23.10
2019,03,20,15,56,23.10
2019,03,20,15,57,23.10
2019,03,20,15,58,23.00
2019,03,20,15,59,23.00
2019,03,20,16,00,23.00
2019,03,20,16,01,23.00
2019,03,20,16,02,23.10
2019,03,20,16,03,23.10
2019,03,20,16,04,23.20
2019,03,20,16,05,23.30
2019,03,20,16,06,23.50
2019,03,20,16,07,23.60
2019,03,20,16,08,23.70
2019,03,20,16,09,23.80
2019,03,20,16,10,23.90
2019,03,20,16,11,23.90
2019,03,20,16,12,23.80
2019,03,20,16,13,23.70
2019,03,20,16,14,23.70
2019,03,20,16,15,23.70
2019,03,20,16,16,23.70
2019,03,20,16,17,23.70
2019,03,20,16,18,23.70
2019,03,20,16,19,23.70
2019,03,20,16,20,23.70
2019,03,20,16,21,23.70
2019,03,20,16,22,23.70
2019,03,20,16,23,23.70
2019,03,20,16,24,23.70
2019,03,20,16,25,23.60
2019,03,20,16,26,23.60
2019,03,20,16,27,23.50
2019,03,20,16,28,23.50
2019,03,20,16,29,23.60
2019,03,20,16,30,23.60
2019,03,20,16,31,23.60
2019,03,20,16,32,23.70
2019,03,20,16,33,23.70
2019,03,20,16,34,23.80
2019,03,20,16,35,23.80
2019,03,20,16,36,23.80
2019,03,20,16,37,23.90
2019,03,20,16,38,23.90
2019,03,20,16,39,23.90
2019,03,20,16,40,24.00
2019,03,20,16,41,24.00
2019,03,20,16,42,24.10
2019,03,20,16,43,24.10
2019,03,20,16,44,24.10
2019,03,20,16,45,24.20
2019,03,20,16,46,24.20
2019,03,20,16,47,24.30
2019,03,20,16,48,24.30
2019,03,20,16,49,24.20
2019,03,20,16,50,24.10
2019,03,20,16,51,24.00
2019,03,20,16,52,23.90
2019,03,20,16,53,23.80
2019,03,20,16,54,23.80
2019,03,20,16,55,23.70
2019,03,20,16,56,23.60
2019,03,20,16,57,23.60
2019,03,20,16,58,23.60
2019,03,20,16,59,23.50
2019,03,20,17,00,23.50
2019,03,20,17,01,23.50
2019,03,20,17,02,23.50
2019,03,20,17,03,23.60
2019,03,20,17,04,23.60
2019,03,20,17,05,23.70
2019,03,20,17,06,23.70
2019,03,20,17,07,23.80
2019,03,20,17,08,23.80
2019,03,20,17,09,23.80
2019,03,20,17,10,23.80
2019,03,20,17,11,23.90
2019,03,20,17,12,23.90
2019,03,20,17,13,23.90
2019,03,20,17,14,24.00
2019,03,20,17,15,23.90
2019,03,20,17,16,23.90
2019,03,20,17,17,23.80
2019,03,20,17,18,23.80
2019,03,20,17,19,23.60
2019,03,20,17,20,23.60
2019,03,20,17,21,23.50
2019,03,20,17,22,23.40
2019,03,20,17,23,23.40
2019,03,20,17,24,23.40
2019,03,20,17,25,23.30
2019,03,20,17,26,23.30
2019,03,20,17,27,23.30
2019,03,20,17,28,23.30
2019,03,20,17,29,23.30
2019,03,20,17,30,23.30
2019,03,20,17,31,23.30
2019,03,20,17,32,23.30
2019,03,20,17,33,23.20
2019,03,20,17,34,23.10
2019,03,20,17,35,23.00
2019,03,20,17,36,22.90
2019,03,20,17,37,22.80
2019,03,20,17,38,22.70
2019,03,20,17,39,22.70
2019,03,20,17,40,22.70
2019,03,20,17,41,22.70
2019,03,20,17,42,22.70
2019,03,20,17,43,22.80
2019,03,20,17,44,22.80
2019,03,20,17,45,22.80